Regional Weather Roundup
Issued by NWS State College, PA

Home | Current Version | Previous Version | Graphics & Text | Print | Product List | Glossary On
Versions: 1 2 3 4 5 6 7 8 9 10 11 12 13 14 15 16 17 18 19 20 21 22 23 24 25 26 27 28 29 30 31 32 33 34 35 36 37 38 39 40 41 42 43 44 45 46 47 48 49 50
000
ASUS41 KCTP 221810
RWRCTP

REGIONAL WEATHER ROUNDUP
NATIONAL WEATHER SERVICE STATE COLLEGE PA
100 PM EST MON JAN 22 2018

Note: "fair" indicates few or no clouds below 12,000 feet with no
significant weather and/or obstructions to visibility.

* = STATION THAT DOES NOT REPORT PRECIPITATION /E.G. RAIN...SNOW...ETC/
    THUNDER OR FOG.

PAZ002>004-007>009-013>016-020>023-029>032-221900-
WESTERN PENNSYLVANIA

CITY           SKY/WX    TMP DP  RH WIND       PRES   REMARKS
ERIE           LGT RAIN N/A N/A N/A S17G26    29.85F
MEADVILLE      CLOUDY    52  47  83 S7        29.89F
FRANKLIN*      LGT RAIN  51  46  83 SE10      29.92F
NEW CASTLE     CLOUDY    55  49  80 S7        29.90F
BEAVER COUNTY  CLOUDY    55  48  76 SE7       29.91F
BUTLER*        PTSUNNY   56  49  77 SE6       29.92F
PITTSBURGH INT CLOUDY    59  49  69 SE7       29.91F
PITTSBURGH     FAIR      60  46  59 S9        29.91F
INDIANA*       MOSUNNY   61  50  67 S10       29.98F
LATROBE        PTSUNNY   63  46  55 S9        29.94F
WASHINGTON CO* PTSUNNY   62  46  55 S8G17     29.94F
$$

PAZ004>006-010>012-017>019-024>028-033>037-041-042-045-046-049>053-221900-
CENTRAL PENNSYLVANIA

CITY           SKY/WX    TMP DP  RH WIND       PRES   REMARKS
BRADFORD       PTSUNNY   50  49  96 S7        29.95F
DUBOIS           N/A    N/A N/A N/A MISG      29.95F
CLEARFIELD     PTSUNNY   49  48  97 NE6       29.98F FOG
JOHNSTOWN      CLOUDY    59  47  64 S9        29.97F
ALTOONA        PTSUNNY   56  48  74 S6        30.00F
STATE COLLEGE  CLOUDY    43  43 100 CALM      30.03F FOG
WILLIAMSPORT   LGT RAIN  38  38 100 E5        30.04F FOG
SELINSGROVE    CLOUDY    41  38  89 CALM      30.07F FOG
FT INDIANTOWN  LGT RAIN  48  43  81 E6        30.08F
CAPITAL CITY   CLOUDY    51  41  68 E6        30.08F
HARRISBURG     CLOUDY    50  42  74 E3        30.07F
YORK           CLOUDY    53  43  68 E3        30.07F
$$

PAZ038>040-043-044-047-048-054-055-060>062-067>071-221900-
EASTERN PENNSYLVANIA

CITY           SKY/WX    TMP DP  RH WIND       PRES   REMARKS
SCRANTON       CLOUDY    43  41  93 NE5       30.05F FOG
MOUNT POCONO   CLOUDY    42  41  96 E7        30.08S
ALLENTOWN      CLOUDY    51  40  65 NE6       30.11F
QUAKERTOWN*    NOT AVBL
READING        CLOUDY    50  43  77 N6        30.08F
LANCASTER      CLOUDY    53  44  71 E7        30.08F
COATESVILLE    FAIR      54  41  62 SE6       30.09F
POTTSTOWN      CLOUDY    52  39  61 E5        30.11F
BLUE BELL      CLOUDY    52  41  66 SE3       30.12F
DOYLESTOWN     CLOUDY    51  39  63 VRB3      30.10F
WILLOW GROVE   NOT AVBL
NORTH PHILA    CLOUDY    55  40  56 CALM      30.13F
PHILADELPHIA   CLOUDY    57  40  52 S3        30.11F
$$




USA.gov is the U.S. government's official web portal to all federal, state and local government web resources and services.